Theta_e
311 309 308 309 309 309 308 308 308 308 309 310 310 310 311 311 311 310 314 316 313 312 311 311 311 314 316 315 315 314 309 310 312 313 319 327 327 327 326 328 329 332 330 330 333
316 312 309 308 309 309 308 308 308 308 309 310 310 310 311 311 310 317 317 317 314 313 313 312 311 314 316 315 314 310 308 311 311 314 326 327 326 326 325 331 330 331 330 330 331
321 318 313 309 308 308 308 307 308 308 309 310 310 310 311 310 310 318 317 316 317 313 312 311 311 313 314 314 315 312 311 312 312 316 324 325 323 326 325 328 330 331 331 329 331
323 322 319 313 309 308 308 307 308 308 309 310 310 310 310 309 310 319 318 317 316 314 312 311 313 315 314 313 313 311 312 312 314 321 323 322 323 324 324 324 331 331 332 331 330
322 322 322 319 312 308 307 307 307 308 309 311 310 310 310 309 310 312 317 317 315 314 312 312 316 316 314 313 313 311 315 318 315 324 323 324 325 324 326 331 331 331 328 329 328
321 320 322 322 317 309 307 307 307 308 310 311 310 310 309 310 311 315 319 319 316 314 313 314 316 317 316 314 315 318 317 320 323 324 325 323 323 323 329 330 330 327 329 328 327
317 318 320 321 320 312 308 307 307 308 310 311 310 310 309 310 311 317 319 319 317 315 315 317 317 317 318 315 318 318 315 320 321 323 323 323 322 322 329 328 326 327 329 328 325
316 319 316 319 321 316 308 307 307 309 311 311 310 309 309 310 309 316 317 319 319 319 318 317 318 318 318 318 318 317 313 318 320 322 323 319 320 322 328 328 328 330 328 328 327
314 317 318 317 321 319 310 307 307 309 311 311 310 309 310 312 313 314 317 318 320 319 319 320 318 318 318 316 315 314 312 317 317 319 321 320 318 319 326 328 327 328 330 330 328
310 316 318 317 319 320 312 307 308 310 314 316 312 311 310 314 317 317 316 319 318 318 319 319 318 314 313 314 317 318 316 316 317 318 320 320 318 320 323 325 326 326 327 331 330
303 314 318 317 317 320 313 307 310 317 317 317 312 310 310 313 315 318 315 316 317 319 317 320 316 318 318 317 317 317 316 317 317 316 320 319 319 316 325 331 331 331 331 331 331
301 314 318 316 317 320 312 307 311 314 313 314 314 315 318 319 318 318 318 316 317 317 320 317 317 317 318 319 319 319 319 318 317 317 317 317 319 316 324 330 331 331 332 332 332
299 311 317 316 318 319 311 310 318 315 313 314 315 316 315 315 318 318 318 317 317 319 319 318 318 319 320 319 320 319 319 318 319 317 315 314 315 316 322 328 330 330 331 331 331
298 308 314 317 317 317 310 317 313 313 314 315 321 318 316 316 316 318 318 317 318 317 318 318 318 319 320 320 319 319 318 319 320 317 315 314 314 315 315 324 326 328 327 327 326
297 305 313 316 315 310 318 317 316 317 308 312 320 319 317 316 316 316 318 318 315 318 317 318 319 319 320 319 319 319 318 319 320 319 319 319 317 315 314 320 323 326 326 325 326
298 306 313 316 317 312 318 317 317 315 312 317 319 318 313 313 314 317 317 318 317 318 318 317 319 318 318 320 319 319 319 318 318 318 319 319 317 316 316 315 317 322 325 324 324
300 308 312 315 316 317 311 317 320 316 314 319 319 314 313 312 313 316 315 314 314 317 318 318 318 319 320 319 318 317 317 318 318 319 320 319 319 317 317 316 315 317 321 324 323
301 308 312 314 316 315 313 320 320 317 318 319 315 313 312 314 314 316 315 314 313 314 316 318 319 320 320 319 320 320 317 317 320 320 318 319 323 319 318 318 319 318 321 322 321
303 306 310 314 316 313 317 322 315 316 319 315 315 314 314 316 315 315 313 313 313 313 315 318 319 320 320 320 319 321 320 317 319 318 318 318 316 316 318 320 319 319 319 322 322
303 305 308 313 315 316 316 318 317 317 319 319 315 314 314 315 315 314 313 314 314 313 314 317 318 320 320 320 319 319 317 318 316 320 321 316 316 317 320 320 320 317 319 320 322
303 305 307 312 314 313 315 316 317 316 316 320 322 319 315 315 314 314 315 315 314 313 313 317 316 317 319 319 317 317 317 317 316 314 317 317 317 310 318 318 319 319 321 322 322
303 306 307 310 313 312 313 314 315 316 316 318 319 321 321 315 315 315 315 315 315 315 316 316 315 317 318 318 318 317 318 317 315 317 314 313 314 313 312 315 318 321 322 323 325
302 306 310 309 314 313 311 313 314 316 317 317 319 320 318 316 316 315 315 316 318 315 317 317 317 318 317 316 318 320 319 318 315 312 315 314 315 312 311 313 318 319 322 323 326
303 306 310 311 312 312 312 314 315 314 314 315 316 317 319 319 315 316 316 320 319 317 317 317 317 317 318 317 316 320 319 316 316 314 315 314 316 315 314 313 313 316 319 322 325
304 305 309 311 311 314 312 312 315 315 314 314 314 316 319 320 317 317 321 320 319 316 317 316 317 316 315 315 315 317 317 316 317 315 316 315 315 314 313 312 311 313 314 317 319
304 307 310 310 310 312 312 312 313 315 314 314 314 318 316 318 318 318 320 319 319 318 317 315 316 316 319 316 317 317 316 315 315 315 315 315 315 312 312 312 312 313 315 317 319
303 307 310 309 309 310 312 311 312 314 314 313 313 314 315 318 318 319 318 318 317 317 315 315 315 313 316 312 314 313 314 315 314 314 314 314 312 311 311 311 311 314 316 318 319
Wind_Speed
14 14 14 15 15 16 16 17 18 18 20 22 23 23 24 25 21 17 7 5 3 4 6 5 5 1 3 2 7 5 3 1 4 5 5 4 3 3 1 5 5 7 13 15 27
14 14 14 14 15 15 16 16 17 18 19 21 23 22 22 23 19 1 2 4 4 6 5 4 2 1 1 1 3 4 3 7 6 5 4 8 5 9 5 14 6 20 17 28 26
15 15 14 15 15 15 15 16 16 17 19 21 22 21 20 19 14 2 3 3 4 5 6 4 1 1 2 3 5 2 4 4 12 14 7 9 6 4 9 1 13 30 34 30 29
18 17 15 15 16 15 15 16 16 17 19 20 21 19 18 14 3 4 2 4 2 4 3 2 2 1 2 3 3 2 13 10 11 9 11 7 7 1 3 3 17 27 34 32 28
22 19 17 16 16 16 15 16 16 16 18 20 20 19 16 9 11 8 2 1 1 2 2 5 2 1 3 6 6 3 5 11 8 16 13 11 4 6 5 15 27 31 28 28 26
24 21 19 17 17 16 16 16 16 16 18 19 19 17 14 7 5 6 4 1 2 3 3 5 1 5 7 5 1 6 8 6 14 12 14 10 3 6 10 28 31 28 27 25 28
27 24 21 18 18 17 17 16 16 16 17 19 18 17 17 19 7 7 9 5 2 3 3 2 6 4 7 6 8 8 4 3 2 7 6 8 2 4 27 27 29 29 29 30 21
28 25 23 21 19 18 18 16 16 16 17 18 16 16 12 9 12 14 9 9 6 5 9 9 9 6 3 8 7 4 3 3 4 5 3 5 4 6 31 31 23 25 25 29 29
26 25 23 21 19 18 18 17 16 17 19 17 15 9 12 5 9 12 12 12 8 7 11 14 11 2 3 3 5 5 2 2 3 10 3 2 4 5 32 31 25 25 25 27 29
25 25 23 21 18 18 18 17 16 18 17 13 14 7 10 1 3 6 17 14 8 9 4 5 1 3 3 4 2 4 3 1 3 4 4 5 6 6 23 25 26 27 27 30 28
23 25 23 21 19 17 16 12 9 6 8 10 2 8 12 13 11 5 16 19 12 2 3 2 3 2 5 5 6 3 5 4 3 4 3 7 6 8 18 18 16 23 30 37 35
21 22 21 19 18 16 14 8 5 4 11 18 24 29 28 26 8 5 10 11 8 5 2 4 3 6 5 2 4 0 4 6 6 5 5 4 10 4 8 12 27 30 31 33 34
21 21 20 20 18 17 13 6 10 12 6 13 18 18 27 16 10 11 10 13 4 6 6 5 4 2 3 4 1 1 2 5 6 5 2 4 5 3 5 10 20 25 38 36 41
23 22 18 17 17 17 8 0 4 7 2 6 6 7 15 10 5 20 10 7 2 10 6 4 2 3 2 2 4 3 3 8 3 2 4 1 3 4 6 14 12 23 28 37 39
24 22 20 20 11 9 8 2 6 4 3 4 4 3 17 20 3 11 22 11 7 6 5 8 5 5 4 5 4 6 3 3 3 2 2 2 3 6 4 9 15 22 29 39 45
24 24 22 23 25 10 8 0 7 4 7 3 8 7 6 6 2 2 11 10 6 5 3 5 1 2 5 1 4 2 1 4 3 1 2 2 5 5 4 10 17 20 33 37 45
24 25 28 26 24 18 14 6 3 4 4 4 5 6 5 6 3 1 5 6 6 5 4 2 1 3 2 2 3 6 5 3 4 4 5 3 2 8 7 7 8 15 31 41 42
25 28 31 29 25 15 10 3 8 6 6 4 3 5 8 6 5 5 5 5 3 4 3 5 4 4 1 3 4 2 5 4 4 2 4 3 4 6 5 14 0 10 29 35 36
24 30 33 33 29 15 8 11 7 6 4 3 3 4 4 4 6 5 8 7 9 8 7 4 3 3 3 1 4 1 0 2 6 3 3 3 7 10 7 4 7 3 12 21 31
28 28 37 36 32 21 5 18 6 5 4 4 8 6 8 8 7 7 8 5 5 9 8 7 2 2 4 3 7 4 5 1 2 3 2 4 4 5 6 5 4 7 11 20 20
28 12 21 32 31 17 13 11 11 20 7 3 2 2 7 7 9 6 8 4 7 6 5 6 5 2 1 6 7 2 1 1 4 4 4 1 5 6 7 6 6 7 5 13 19
30 5 24 40 12 10 14 7 8 18 2 3 3 5 4 7 7 8 9 8 13 13 9 7 6 4 9 2 2 2 5 5 4 4 1 4 6 4 8 8 8 13 9 9 12
23 14 30 44 13 13 8 17 9 6 6 6 4 1 4 2 4 7 8 6 10 9 10 8 1 3 6 5 4 4 5 4 4 4 6 5 6 3 6 6 16 17 18 16 18
18 6 14 33 34 20 20 13 23 22 11 4 3 3 2 3 6 6 7 4 10 12 13 14 5 8 8 8 4 4 5 5 6 3 4 6 6 6 8 5 10 15 23 22 23
21 10 16 13 23 17 20 12 16 16 14 10 5 9 3 3 3 4 2 3 1 8 6 5 6 5 5 4 5 4 3 7 5 5 6 6 7 7 6 8 10 12 9 10 17
21 6 20 3 27 28 18 22 25 22 8 10 15 3 10 9 7 3 4 3 6 2 5 1 3 3 2 3 2 4 7 6 6 4 6 5 5 3 1 5 13 11 12 10 7
33 16 9 12 17 19 29 20 21 17 18 21 15 16 11 14 17 22 20 9 8 10 6 6 6 4 4 2 3 5 8 7 6 4 6 6 8 4 4 7 9 13 15 13 11
Wind_Direction
292 296 297 297 292 290 294 301 306 312 318 319 321 324 326 325 324 310 316 310 298 217 230 234 265 249 294 177 196 189 79 171 241 212 256 167 100 200 345 140 130 170 162 158 150
287 292 296 297 295 291 295 299 304 311 315 318 320 325 327 327 327 344 348 340 283 243 241 230 226 203 0 229 218 143 143 213 213 195 245 169 152 210 151 122 84 104 143 151 155
283 289 295 299 297 294 294 297 303 309 313 317 318 325 327 328 324 202 37 2 285 252 241 223 278 351 273 247 232 198 205 215 252 236 211 171 197 180 148 188 165 140 142 157 156
275 282 289 295 297 296 293 297 301 307 311 314 317 324 324 322 293 211 331 354 291 260 229 149 134 108 286 259 232 269 245 252 284 184 152 158 147 113 234 259 168 158 154 158 157
264 272 281 289 295 297 292 294 298 305 310 313 316 320 325 305 266 244 303 342 261 268 192 159 158 213 308 290 292 202 280 320 236 153 155 148 151 132 93 134 150 149 161 158 158
258 263 272 281 290 295 291 291 297 303 307 310 313 314 314 288 249 211 187 320 243 220 216 196 194 314 293 263 230 298 301 178 140 156 163 151 145 139 137 146 149 155 158 160 165
258 258 263 275 285 292 292 290 294 299 304 306 309 308 297 267 228 183 195 211 198 232 194 255 282 297 306 291 324 308 46 38 328 182 167 146 74 93 154 157 160 165 160 166 181
254 255 260 267 278 288 292 292 293 295 299 300 301 303 270 264 229 211 214 200 211 246 268 295 338 294 237 305 328 8 57 107 242 177 124 70 241 149 166 163 173 169 169 179 186
248 252 255 261 273 285 292 293 293 292 291 289 290 291 268 256 258 219 217 217 232 268 272 272 300 288 355 50 355 10 270 187 165 223 76 103 258 133 176 173 178 178 177 190 191
246 246 253 259 269 281 292 296 295 288 283 271 259 287 259 154 246 255 215 231 245 307 251 268 239 58 37 66 272 293 350 331 131 198 171 213 256 132 185 183 178 186 184 188 196
245 240 243 252 263 277 292 306 300 281 254 232 229 246 275 286 296 218 208 221 235 235 165 50 74 193 230 182 216 262 268 277 323 284 182 210 241 200 183 173 181 178 184 192 202
240 233 237 243 254 271 288 291 320 323 301 268 259 257 258 271 291 224 200 186 170 202 166 29 239 230 192 283 354 28 335 320 299 296 195 171 231 211 185 184 186 189 197 201 206
238 226 231 242 248 261 274 273 266 242 275 283 247 240 241 234 225 225 190 188 140 137 201 169 245 149 261 118 343 337 214 255 242 328 27 116 325 168 206 212 206 205 204 206 207
234 223 224 230 249 256 256 320 279 206 325 267 225 238 182 161 236 227 200 171 151 193 157 233 280 140 228 200 178 332 270 273 293 42 221 99 266 273 204 208 204 207 205 210 209
224 213 214 219 225 212 173 22 145 160 315 230 187 146 168 165 139 211 219 205 165 174 132 241 166 192 230 235 128 232 284 304 230 219 12 331 99 262 146 213 219 214 209 206 207
215 205 204 221 226 197 184 122 158 56 248 287 152 161 143 194 218 124 166 182 196 118 235 222 248 164 223 229 178 265 166 61 56 96 22 248 139 283 195 207 221 217 213 209 210
209 198 201 217 224 227 238 171 143 188 321 222 182 159 165 165 213 133 136 158 158 112 189 51 268 289 213 119 349 66 52 349 352 11 225 351 26 238 268 272 221 209 206 213 211
209 200 203 211 217 220 196 181 214 218 236 304 170 113 174 148 223 172 151 193 235 120 129 145 322 193 263 163 169 154 143 161 227 212 281 0 255 259 262 283 49 208 214 214 211
206 205 209 206 206 204 204 209 197 216 217 232 76 129 226 199 161 139 189 195 192 171 152 142 248 331 269 247 137 153 345 187 102 19 55 258 296 314 329 22 58 151 184 196 208
205 208 212 202 199 205 228 216 202 228 347 1 198 173 177 197 158 151 180 209 216 183 152 205 152 193 298 17 284 167 159 98 2 158 230 286 287 247 311 304 316 144 205 212 209
198 206 220 201 196 177 220 213 215 256 296 325 316 253 215 176 176 172 191 239 206 171 132 138 121 254 166 200 210 157 215 92 128 137 166 209 264 218 246 261 270 280 209 200 205
186 212 199 193 180 195 219 192 240 239 223 303 324 244 238 184 186 187 203 205 201 150 158 198 137 172 209 212 164 205 180 134 122 233 176 153 268 252 240 250 259 251 234 231 216
182 207 184 189 199 207 210 211 244 218 194 219 244 320 2 228 189 194 199 223 169 153 158 179 180 90 345 5 17 230 207 169 120 83 202 146 255 280 265 237 237 245 246 224 214
177 188 177 194 212 197 193 197 213 234 260 309 297 302 260 283 230 211 206 194 185 201 202 141 144 157 186 207 171 192 202 174 144 129 194 222 262 275 254 306 300 268 253 244 224
190 216 188 191 209 209 191 197 202 212 203 216 268 231 202 313 299 170 150 137 356 159 128 135 165 160 217 190 188 214 215 165 173 203 164 244 205 262 282 276 280 285 232 238 240
186 206 176 241 196 203 192 207 204 206 213 208 230 230 216 219 230 296 157 187 188 194 138 198 181 121 90 7 202 198 220 201 207 196 258 253 242 235 345 68 63 80 115 100 98
198 211 203 199 180 192 212 197 202 195 223 241 214 226 240 236 247 262 257 270 206 156 163 136 132 108 220 5 15 328 224 212 221 195 176 196 221 148 64 72 74 92 90 90 90